DW1347 Weather Reports


Display with metric or nautical units.
time (UTC)temp
F
wind
direction
speed
MPH
gust
MPH
rain 1hr
in
rain 24hr
in
rain mn
in
humidity
%
barometer
mb
20260904112350 49 215 0.0 0.0 0.00 0.00 0.00 60 1027.8
20260904111845 49 201 0.0 1.0 0.00 0.00 0.00 61 1027.9
20260904111341 49 204 0.0 0.0 0.00 0.00 0.00 62 1027.9
20260904110836 49 219 0.0 0.0 0.00 0.00 0.00 62 1027.6
20260904110335 49 219 0.0 0.0 0.00 0.00 0.00 61 1027.9
20260904105830 49 201 1.0 1.0 0.00 0.00 0.00 61 1027.8
20260904105325 50 219 0.0 0.0 0.00 0.00 0.00 59 1027.8
20260904104820 50 118 3.0 3.0 0.00 0.00 0.00 58 1027.5
20260904104316 49 156 0.0 1.0 0.00 0.00 0.00 60 1027.8
20260904103813 48 217 0.0 0.0 0.00 0.00 0.00 62 1027.6
20260904103312 49 205 0.0 0.0 0.00 0.00 0.00 61 1027.6
20260904102808 49 205 0.0 0.0 0.00 0.00 0.00 60 1027.5
20260904102306 49 216 0.0 0.0 0.00 0.00 0.00 61 1027.5
20260904101759 49 198 1.0 1.0 0.00 0.00 0.00 62 1027.1
20260904101255 49 201 1.0 1.0 0.00 0.00 0.00 61 1027.4
20260904100751 49 214 0.0 0.0 0.00 0.00 0.00 61 1027.5
20260904100247 50 219 0.0 0.0 0.00 0.00 0.00 60 1027.4
20260904095746 49 209 0.0 0.0 0.00 0.00 0.00 63 1027.3
20260904095241 49 169 1.0 1.0 0.00 0.00 0.00 62 1027.3
20260904094736 50 213 0.0 1.0 0.00 0.00 0.00 60 1027.1
20260904094231 51 202 1.0 1.0 0.00 0.00 0.00 57 1027.4
20260904093727 49 210 0.0 0.0 0.00 0.00 0.00 61 1027.1
20260904093227 50 219 0.0 0.0 0.00 0.00 0.00 62 1027.3
20260904092723 50 207 0.0 0.0 0.00 0.00 0.00 62 1027.3
20260904092219 50 191 1.0 1.0 0.00 0.00 0.00 61 1027.1
20260904091715 50 205 0.0 0.0 0.00 0.00 0.00 62 1027.1
20260904091209 50 220 0.0 0.0 0.00 0.00 0.00 63 1027.1
20260904090705 50 173 1.0 1.0 0.00 0.00 0.00 64 1027.4
20260904090201 50 224 0.0 0.0 0.00 0.00 0.00 64 1027.1
20260904085656 50 219 0.0 0.0 0.00 0.00 0.00 63 1026.9
20260904085156 50 208 0.0 0.0 0.00 0.00 0.00 62 1027.1
20260904084651 50 214 0.0 0.0 0.00 0.00 0.00 61 1027.0
20260904084147 50 165 2.0 2.0 0.00 0.00 0.00 62 1027.1
20260904083643 50 140 3.0 3.0 0.00 0.00 0.00 63 1027.0
20260904083138 51 221 0.0 0.0 0.00 0.00 0.00 63 1027.0
20260904060932 55 206 0.0 0.0 0.00 0.00 0.00 56 1027.8
20260904060428 55 206 0.0 0.0 0.00 0.00 0.00 56 1027.8
20260904055923 55 206 0.0 0.0 0.00 0.00 0.00 56 1027.8
20260904055419 55 193 0.0 1.0 0.00 0.00 0.00 57 1027.8
20260904054914 55 227 0.0 0.0 0.00 0.00 0.00 56 1027.9
20260904054410 55 219 0.0 0.0 0.00 0.00 0.00 56 1027.6
20260904053906 55 163 1.0 2.0 0.00 0.00 0.00 56 1027.4
20260904053404 57 224 1.0 1.0 0.00 0.00 0.00 55 1027.9
20260904052901 56 192 1.0 1.0 0.00 0.00 0.00 54 1027.5
20260904052357 57 196 1.0 1.0 0.00 0.00 0.00 54 1027.6
20260904051853 56 189 0.0 0.0 0.00 0.00 0.00 54 1027.8
20260904051348 57 213 0.0 0.0 0.00 0.00 0.00 54 1027.8
20260904050843 58 221 2.0 2.0 0.00 0.00 0.00 54 1027.5
20260904050340 57 180 2.0 2.0 0.00 0.00 0.00 53 1027.6
20260904045839 57 204 0.0 0.0 0.00 0.00 0.00 54 1027.5
20260904045335 56 201 0.0 0.0 0.00 0.00 0.00 55 1027.6
20260904044834 57 235 0.0 0.0 0.00 0.00 0.00 54 1027.8
20260904044331 57 201 0.0 0.0 0.00 0.00 0.00 54 1027.8
20260904043827 57 215 0.0 0.0 0.00 0.00 0.00 54 1027.8
20260904043323 57 218 0.0 0.0 0.00 0.00 0.00 53 1027.8
20260904042818 57 199 0.0 0.0 0.00 0.00 0.00 54 1028.0
20260904042314 57 213 0.0 0.0 0.00 0.00 0.00 54 1027.8
20260904041814 57 216 0.0 0.0 0.00 0.00 0.00 53 1027.9
20260904041310 57 194 0.0 1.0 0.00 0.00 0.00 53 1027.8
20260904040806 58 210 0.0 0.0 0.00 0.00 0.00 53 1028.0
20260904040301 58 199 0.0 0.0 0.00 0.00 0.00 53 1027.5
20260904035757 58 181 1.0 2.0 0.00 0.00 0.00 52 1028.0
20260904035253 59 201 0.0 0.0 0.00 0.00 0.00 52 1027.8
20260904034751 59 218 0.0 0.0 0.00 0.00 0.00 51 1028.1
20260904034247 59 180 1.0 2.0 0.00 0.00 0.00 51 1027.9
20260904033743 59 207 0.0 0.0 0.00 0.00 0.00 51 1027.5
20260904033240 60 210 0.0 0.0 0.00 0.00 0.00 50 1027.8
20260904032735 59 203 0.0 0.0 0.00 0.00 0.00 50 1027.9
20260904032235 60 210 0.0 0.0 0.00 0.00 0.00 50 1027.9
20260904031729 60 174 1.0 1.0 0.00 0.00 0.00 49 1027.5
20260904031225 60 178 1.0 1.0 0.00 0.00 0.00 49 1027.6
20260904030720 60 179 1.0 1.0 0.00 0.00 0.00 49 1027.5
20260904030215 61 210 0.0 0.0 0.00 0.00 0.00 49 1027.8
20260904025712 61 198 0.0 0.0 0.00 0.00 0.00 48 1027.9
20260904025207 61 184 1.0 1.0 0.00 0.00 0.00 47 1027.5
20260904024702 62 228 1.0 1.0 0.00 0.00 0.00 47 1027.4
20260904024157 62 182 1.0 1.0 0.00 0.00 0.00 47 1027.6
20260904023654 63 198 0.0 0.0 0.00 0.00 0.00 46 1027.3
20260904023149 63 214 0.0 0.0 0.00 0.00 0.00 47 1027.3
20260904022648 64 198 0.0 1.0 0.00 0.00 0.00 45 1027.1
20260904022145 64 198 0.0 1.0 0.00 0.00 0.00 45 1027.1
20260904021548 65 205 0.0 0.0 0.00 0.00 0.00 44 1027.0
20260904021043 65 205 0.0 0.0 0.00 0.00 0.00 44 1027.0
20260904020538 65 213 0.0 0.0 0.00 0.00 0.00 44 1026.6
20260904020033 66 185 0.0 0.0 0.00 0.00 0.00 45 1026.9
20260904015527 66 193 1.0 1.0 0.00 0.00 0.00 43 1026.9
20260904015026 67 223 0.0 0.0 0.00 0.00 0.00 43 1026.6
20260904014520 69 221 0.0 0.0 0.00 0.00 0.00 41 1026.6
20260904014016 68 224 1.0 1.0 0.00 0.00 0.00 39 1026.5
20260904013512 69 222 0.0 0.0 0.00 0.00 0.00 41 1027.0
20260904013009 71 223 0.0 0.0 0.00 0.00 0.00 37 1026.6
20260904012508 71 217 2.0 2.0 0.00 0.00 0.00 37 1026.6
20260904012002 71 224 2.0 2.0 0.00 0.00 0.00 36 1026.4
20260904011456 71 208 1.0 2.0 0.00 0.00 0.00 36 1026.5
20260904010952 72 220 1.0 1.0 0.00 0.00 0.00 36 1026.4
20260904010448 73 223 1.0 1.0 0.00 0.00 0.00 34 1026.2
20260904005943 74 222 0.0 1.0 0.00 0.00 0.00 34 1026.4
20260904005439 74 235 1.0 1.0 0.00 0.00 0.00 34 1026.6
20260903233629 79 336 4.0 7.0 0.00 0.00 0.00 29 1025.9
20260903233124 79 336 4.0 7.0 0.00 0.00 0.00 29 1025.9
20260903232619 79 234 6.0 8.0 0.00 0.00 0.00 29 1025.9
20260903232114 79 10 6.0 7.0 0.00 0.00 0.00 30 1026.1
20260903231608 80 218 2.0 2.0 0.00 0.00 0.00 29 1025.9
20260903231103 80 0 4.0 5.0 0.00 0.00 0.00 29 1025.9
20260903230559 80 50 4.0 5.0 0.00 0.00 0.00 29 1025.9
20260903230057 80 254 3.0 3.0 0.00 0.00 0.00 28 1025.9
20260903225554 79 229 2.0 2.0 0.00 0.00 0.00 28 1025.9
20260903225050 78 203 1.0 2.0 0.00 0.00 0.00 29 1025.9
20260903224546 80 260 2.0 2.0 0.00 0.00 0.00 29 1025.9
20260903224042 80 203 1.0 2.0 0.00 0.00 0.00 28 1025.9
20260903223537 81 221 1.0 2.0 0.00 0.00 0.00 28 1026.0
20260903223036 81 122 2.0 3.0 0.00 0.00 0.00 28 1025.9
20260903222531 81 9 2.0 2.0 0.00 0.00 0.00 29 1026.0
20260903222030 80 301 3.0 5.0 0.00 0.00 0.00 28 1025.9
20260903221525 80 332 6.0 8.0 0.00 0.00 0.00 28 1025.9
20260903221022 81 228 2.0 3.0 0.00 0.00 0.00 28 1026.0
20260903220522 80 244 1.0 2.0 0.00 0.00 0.00 29 1026.0
20260903220022 80 223 3.0 3.0 0.00 0.00 0.00 29 1026.0
20260903215516 80 137 2.0 3.0 0.00 0.00 0.00 30 1026.1
20260903215015 79 293 8.0 10.0 0.00 0.00 0.00 30 1026.1
20260903214510 82 147 4.0 5.0 0.00 0.00 0.00 29 1026.4
20260903214009 80 184 5.0 7.0 0.00 0.00 0.00 30 1026.0
20260903213505 79 354 5.0 8.0 0.00 0.00 0.00 30 1026.1
20260903213001 79 352 5.0 7.0 0.00 0.00 0.00 31 1026.1
20260903212456 78 202 2.0 2.0 0.00 0.00 0.00 30 1026.0
20260903211951 80 35 5.0 7.0 0.00 0.00 0.00 29 1026.0
20260903211446 80 227 3.0 5.0 0.00 0.00 0.00 30 1026.1
20260903210942 81 55 4.0 6.0 0.00 0.00 0.00 29 1026.0
20260903210442 82 216 3.0 3.0 0.00 0.00 0.00 28 1026.2
20260903205937 82 291 6.0 10.0 0.00 0.00 0.00 26 1026.4
20260903205432 81 281 2.0 2.0 0.00 0.00 0.00 25 1026.0
20260903204926 82 28 3.0 3.0 0.00 0.00 0.00 25 1026.2
20260903204423 81 332 3.0 3.0 0.00 0.00 0.00 25 1026.5
20260903203919 84 190 5.0 6.0 0.00 0.00 0.00 24 1026.2
20260903203414 82 250 4.0 5.0 0.00 0.00 0.00 25 1026.5
20260903202913 83 222 0.0 0.0 0.00 0.00 0.00 24 1026.9
20260903202410 82 231 5.0 7.0 0.00 0.00 0.00 25 1026.5
20260903201909 82 224 2.0 2.0 0.00 0.00 0.00 27 1026.8
20260903201404 81 218 1.0 1.0 0.00 0.00 0.00 25 1026.5
20260903200903 83 82 2.0 5.0 0.00 0.00 0.00 24 1026.8
20260903200353 80 214 2.0 2.0 0.00 0.00 0.00 27 1027.0
20260903195848 79 293 3.0 3.0 0.00 0.00 0.00 26 1026.8
20260903195344 79 185 4.0 5.0 0.00 0.00 0.00 27 1027.0
20260903194838 77 333 5.0 6.0 0.00 0.00 0.00 28 1027.1
20260903194334 77 333 5.0 6.0 0.00 0.00 0.00 28 1027.1
20260903193829 78 29 2.0 2.0 0.00 0.00 0.00 28 1027.4
20260903193326 79 321 5.0 7.0 0.00 0.00 0.00 27 1027.1
20260903192821 80 196 3.0 3.0 0.00 0.00 0.00 28 1027.5
20260903192316 79 237 3.0 3.0 0.00 0.00 0.00 28 1027.1
20260903191812 79 225 4.0 5.0 0.00 0.00 0.00 27 1027.3
20260903191308 79 171 2.0 5.0 0.00 0.00 0.00 28 1027.5
20260903190808 79 280 5.0 7.0 0.00 0.00 0.00 28 1027.3
20260903190303 79 223 3.0 3.0 0.00 0.00 0.00 28 1027.5
20260903185757 78 226 2.0 2.0 0.00 0.00 0.00 31 1027.5
20260903185257 77 111 1.0 2.0 0.00 0.00 0.00 30 1027.6
20260903184753 79 29 3.0 6.0 0.00 0.00 0.00 30 1027.6
20260903184249 77 60 3.0 3.0 0.00 0.00 0.00 29 1027.5
20260903183744 77 208 3.0 3.0 0.00 0.00 0.00 30 1027.8
20260903183238 78 251 2.0 2.0 0.00 0.00 0.00 28 1027.8
20260903182737 78 245 3.0 3.0 0.00 0.00 0.00 31 1027.9
20260903182232 78 165 6.0 7.0 0.00 0.00 0.00 29 1027.8
20260903181731 79 216 5.0 6.0 0.00 0.00 0.00 29 1027.9
20260903181226 77 155 1.0 1.0 0.00 0.00 0.00 29 1028.0
20260903180722 77 129 4.0 6.0 0.00 0.00 0.00 29 1028.5
20260903180215 77 114 2.0 3.0 0.00 0.00 0.00 30 1028.1
20260903175715 76 216 1.0 2.0 0.00 0.00 0.00 30 1028.4
20260903175209 76 39 2.0 2.0 0.00 0.00 0.00 31 1028.5
20260903174708 76 208 1.0 1.0 0.00 0.00 0.00 32 1028.5
20260903174203 76 345 2.0 3.0 0.00 0.00 0.00 32 1028.9
20260903173658 74 25 2.0 2.0 0.00 0.00 0.00 33 1028.6
20260903173154 74 215 3.0 5.0 0.00 0.00 0.00 32 1028.6
20260903172649 74 279 4.0 5.0 0.00 0.00 0.00 32 1028.4
20260903172144 75 169 4.0 5.0 0.00 0.00 0.00 32 1028.9
20260903171638 75 146 3.0 3.0 0.00 0.00 0.00 33 1028.8
20260903171134 76 103 1.0 2.0 0.00 0.00 0.00 32 1028.6
20260903170633 75 248 3.0 5.0 0.00 0.00 0.00 34 1028.8
20260903170129 74 101 7.0 8.0 0.00 0.00 0.00 34 1028.6
20260903165627 74 125 2.0 2.0 0.00 0.00 0.00 33 1028.5
20260903165121 73 155 3.0 6.0 0.00 0.00 0.00 34 1028.6
20260903164616 74 277 3.0 6.0 0.00 0.00 0.00 34 1028.6
20260903164107 73 187 2.0 2.0 0.00 0.00 0.00 34 1028.5
20260903163606 74 230 2.0 3.0 0.00 0.00 0.00 35 1028.3
20260903163103 73 253 3.0 3.0 0.00 0.00 0.00 36 1028.5
20260903162559 72 243 4.0 6.0 0.00 0.00 0.00 36 1028.5
20260903162054 72 232 1.0 2.0 0.00 0.00 0.00 37 1028.5
20260903161549 72 201 3.0 3.0 0.00 0.00 0.00 37 1028.5
20260903161045 71 192 3.0 5.0 0.00 0.00 0.00 37 1028.5
20260903160544 72 252 3.0 3.0 0.00 0.00 0.00 38 1028.4
20260903160039 72 203 4.0 5.0 0.00 0.00 0.00 37 1028.6
20260903155538 71 196 1.0 2.0 0.00 0.00 0.00 38 1028.8
20260903155034 71 237 4.0 6.0 0.00 0.00 0.00 37 1028.4
20260903154530 71 211 2.0 3.0 0.00 0.00 0.00 39 1028.4
20260903154026 71 123 2.0 5.0 0.00 0.00 0.00 39 1028.3
20260903153520 70 226 3.0 3.0 0.00 0.00 0.00 39 1028.6
20260903153017 70 262 2.0 3.0 0.00 0.00 0.00 39 1028.4
20260903152512 70 232 3.0 5.0 0.00 0.00 0.00 39 1028.6
20260903152008 70 185 0.0 1.0 0.00 0.00 0.00 38 1029.0
20260903151507 69 208 5.0 8.0 0.00 0.00 0.00 39 1028.6
20260903151003 69 250 2.0 3.0 0.00 0.00 0.00 39 1028.5
20260903150457 69 317 2.0 3.0 0.00 0.00 0.00 41 1028.6
20260903145951 69 164 3.0 3.0 0.00 0.00 0.00 40 1028.8
20260903145447 68 197 1.0 1.0 0.00 0.00 0.00 41 1028.8
20260903144942 67 203 2.0 2.0 0.00 0.00 0.00 46 1029.3
20260903144441 67 213 4.0 5.0 0.00 0.00 0.00 43 1029.0
20260903143937 67 227 1.0 2.0 0.00 0.00 0.00 42 1029.0
20260903143433 66 82 1.0 2.0 0.00 0.00 0.00 43 1028.9
20260903142929 66 160 3.0 3.0 0.00 0.00 0.00 43 1029.0
20260903142424 65 149 4.0 6.0 0.00 0.00 0.00 44 1028.9
20260903141920 64 221 0.0 0.0 0.00 0.00 0.00 46 1028.8
20260903141415 63 210 2.0 2.0 0.00 0.00 0.00 46 1029.0
20260903140911 60 221 2.0 2.0 0.00 0.00 0.00 54 1029.0
20260903140401 58 248 1.0 2.0 0.00 0.00 0.00 56 1029.0
20260903135856 58 290 1.0 2.0 0.00 0.00 0.00 59 1028.8
20260903135352 58 219 1.0 1.0 0.00 0.00 0.00 57 1029.0
20260903134850 56 171 1.0 2.0 0.00 0.00 0.00 61 1028.8
20260903134346 55 187 1.0 1.0 0.00 0.00 0.00 61 1029.0
20260903133843 54 181 1.0 1.0 0.00 0.00 0.00 63 1028.8
20260903133339 52 215 0.0 0.0 0.00 0.00 0.00 66 1028.6
20260903132834 51 211 0.0 0.0 0.00 0.00 0.00 66 1029.0
20260903132330 50 196 1.0 1.0 0.00 0.00 0.00 67 1028.6
20260903131824 50 222 0.0 0.0 0.00 0.00 0.00 68 1028.6
20260903131324 50 220 0.0 0.0 0.00 0.00 0.00 69 1028.6
20260903130823 48 180 1.0 2.0 0.00 0.00 0.00 69 1028.6
20260903130318 48 204 0.0 0.0 0.00 0.00 0.00 70 1028.6
20260903125817 48 173 1.0 1.0 0.00 0.00 0.00 70 1028.5
20260903125312 48 208 0.0 0.0 0.00 0.00 0.00 70 1028.6
20260903124811 48 208 0.0 0.0 0.00 0.00 0.00 71 1028.4
20260903124307 48 234 0.0 0.0 0.00 0.00 0.00 69 1028.3
20260903123805 49 213 0.0 1.0 0.00 0.00 0.00 70 1028.4
20260903123305 50 225 0.0 0.0 0.00 0.00 0.00 68 1028.4
20260903122804 50 155 3.0 3.0 0.00 0.00 0.00 65 1028.1
20260903122259 49 236 0.0 0.0 0.00 0.00 0.00 66 1027.9
20260903121756 50 34 1.0 1.0 0.00 0.00 0.00 67 1028.1
20260903121253 51 170 1.0 2.0 0.00 0.00 0.00 67 1027.9
20260903120749 51 204 0.0 1.0 0.00 0.00 0.00 64 1028.0
20260903120242 52 221 0.0 0.0 0.00 0.00 0.00 63 1027.8
20260903115741 52 216 0.0 0.0 0.00 0.00 0.00 61 1028.1
20260903115236 53 205 2.0 2.0 0.00 0.00 0.00 60 1028.0
20260903114736 54 164 2.0 2.0 0.00 0.00 0.00 58 1028.0
20260903114232 54 171 3.0 3.0 0.00 0.00 0.00 58 1027.9
20260903113727 50 212 0.0 0.0 0.00 0.00 0.00 67 1027.8
20260903113223 48 221 0.0 0.0 0.00 0.00 0.00 68 1027.9
20260903112719 48 213 0.0 0.0 0.00 0.00 0.00 69 1027.9